ENT1DM EVRA-LIRF

Flight info

Callsign ENT1DM
Flight time 2h 36m
Altitude 36000
Route ERIVA DCT BOKSU DCT ASBIM DCT BAVOK DCT OGDAS DCT UPLAV DCT LEDVA DCT GIRDA DCT BAXON/N0446F370 DCT UNUMU DCT ETPOK T369 RITEB
Aircraft B738/M-SDE2E3FGHIRWXY/LB1

Departure

Time 2026-05-04 08:06
Airport Riga International Airport (EVRA)

Arrival

Time 2026-05-04 10:43
Airport Rome–Fiumicino Leonardo da Vinci International Airport (LIRF)
Time Latitude Longitude Altitude Speed Heading
2026-05-04 07:47 56.92545 23.97797 42 ft 0 kts 185°
2026-05-04 08:00 56.92561 23.97799 43 ft 4 kts 181°
2026-05-04 08:00 56.92587 23.97796 42 ft 4 kts 160°
2026-05-04 08:00 56.92605 23.97777 42 ft 3 kts 138°
2026-05-04 08:02 56.92653 23.97758 41 ft 0 kts 185°
2026-05-04 08:03 56.92643 23.97757 40 ft 3 kts 185°
2026-05-04 08:03 56.92610 23.97727 43 ft 7 kts 233°
2026-05-04 08:03 56.92608 23.97612 43 ft 11 kts 276°
2026-05-04 08:04 56.92668 23.97557 43 ft 11 kts
2026-05-04 08:04 56.92758 23.97574 43 ft 15 kts
2026-05-04 08:04 56.92868 23.97593 42 ft 16 kts
2026-05-04 08:04 56.92949 23.97538 41 ft 13 kts 289°
2026-05-04 08:05 56.92959 23.97374 42 ft 13 kts 275°
2026-05-04 08:05 56.92975 23.97231 43 ft 8 kts 253°
2026-05-04 08:05 56.92915 23.97204 43 ft 13 kts 185°
2026-05-04 08:05 56.92598 23.97152 44 ft 80 kts 185°
2026-05-04 08:06 56.91831 23.97026 43 ft 139 kts 185°
2026-05-04 08:06 56.90745 23.96839 352 ft 163 kts 184°
2026-05-04 08:06 56.89622 23.96662 1090 ft 165 kts 188°
2026-05-04 08:06 56.88518 23.96486 2046 ft 157 kts 186°
2026-05-04 08:08 56.79548 24.07821 5454 ft 278 kts 150°
2026-05-04 08:08 56.77985 24.09899 6376 ft 277 kts 150°
2026-05-04 08:10 56.64371 24.27638 11005 ft 358 kts 151°
2026-05-04 08:11 56.62325 24.30299 11642 ft 363 kts 150°
2026-05-04 08:11 56.58193 24.35672 13137 ft 368 kts 150°
2026-05-04 08:11 56.56096 24.38386 13815 ft 371 kts 150°
2026-05-04 08:12 56.53982 24.41113 14422 ft 375 kts 150°
2026-05-04 08:12 56.51862 24.43841 14929 ft 382 kts 150°
2026-05-04 08:12 56.49667 24.46659 15393 ft 390 kts 149°
2026-05-04 08:12 56.47445 24.49515 16057 ft 392 kts 149°
2026-05-04 08:13 56.45215 24.52378 16720 ft 394 kts 149°
2026-05-04 08:13 56.42969 24.55253 17310 ft 398 kts 149°
2026-05-04 08:13 56.40695 24.58151 17888 ft 402 kts 150°
2026-05-04 08:13 56.38211 24.60368 18367 ft 396 kts 170°
2026-05-04 08:14 56.35508 24.60824 18917 ft 388 kts 188°
2026-05-04 08:14 56.32886 24.59892 19463 ft 382 kts 204°
2026-05-04 08:14 56.30438 24.58030 19992 ft 383 kts 207°
2026-05-04 08:16 56.13014 24.43852 23371 ft 403 kts 207°
2026-05-04 08:16 56.10447 24.41807 23756 ft 405 kts 207°
2026-05-04 08:16 56.07866 24.39756 24134 ft 407 kts 207°
2026-05-04 08:17 56.05262 24.37690 24509 ft 409 kts 207°
2026-05-04 08:17 56.02650 24.35622 24866 ft 412 kts 207°
2026-05-04 08:17 56.00019 24.33541 25216 ft 414 kts 207°
2026-05-04 08:17 55.97375 24.31455 25569 ft 416 kts 207°
2026-05-04 08:19 55.78513 24.16652 27855 ft 431 kts 206°
2026-05-04 08:19 55.75757 24.14502 28107 ft 434 kts 206°
2026-05-04 08:20 55.72981 24.12339 28411 ft 436 kts 206°
2026-05-04 08:20 55.70196 24.10174 28727 ft 437 kts 206°
2026-05-04 08:20 55.67405 24.08008 29106 ft 437 kts 206°
2026-05-04 08:20 55.64622 24.05852 29563 ft 435 kts 206°
2026-05-04 08:21 55.61851 24.03709 30008 ft 433 kts 206°
2026-05-04 08:21 55.59092 24.01578 30340 ft 433 kts 206°
2026-05-04 08:21 55.56335 23.99450 30666 ft 432 kts 206°
2026-05-04 08:21 55.53582 23.97329 30962 ft 432 kts 206°
2026-05-04 08:22 55.50825 23.95208 31249 ft 432 kts 206°
2026-05-04 08:22 55.48071 23.93092 31575 ft 431 kts 206°
2026-05-04 08:24 55.29010 23.78540 33763 ft 425 kts 206°
2026-05-04 08:24 55.26296 23.76480 34011 ft 425 kts 206°
2026-05-04 08:24 55.23582 23.74423 34249 ft 425 kts 206°
2026-05-04 08:24 55.20871 23.72372 34473 ft 425 kts 206°
2026-05-04 08:25 55.18158 23.70322 34691 ft 424 kts 206°
2026-05-04 08:25 55.15446 23.68276 34924 ft 424 kts 206°
2026-05-04 08:25 55.12731 23.66231 35135 ft 424 kts 206°
2026-05-04 08:25 55.10016 23.64189 35337 ft 424 kts 206°
2026-05-04 08:26 55.07307 23.62155 35552 ft 424 kts 206°
2026-05-04 08:27 54.88254 23.47929 35879 ft 426 kts 206°
2026-05-04 08:28 54.82809 23.43891 35882 ft 425 kts 206°
2026-05-04 08:28 54.77363 23.39864 35892 ft 425 kts 206°
2026-05-04 08:29 54.71917 23.35849 35891 ft 425 kts 205°
2026-05-04 08:31 54.50103 23.19880 35901 ft 427 kts 205°
2026-05-04 08:33 54.28358 23.03208 35917 ft 426 kts 217°
2026-05-04 08:35 54.08851 22.80045 35910 ft 428 kts 216°
2026-05-04 08:35 54.03932 22.74296 35925 ft 428 kts 216°
2026-05-04 08:37 53.86723 22.54310 35927 ft 429 kts 216°
2026-05-04 08:38 53.81795 22.48624 35923 ft 428 kts 216°
2026-05-04 08:38 53.76873 22.42960 35924 ft 427 kts 216°
2026-05-04 08:40 53.58097 22.21506 35931 ft 424 kts 216°
2026-05-04 08:41 53.52380 22.15020 35938 ft 424 kts 216°
2026-05-04 08:41 53.48309 22.10414 35939 ft 424 kts 216°
2026-05-04 08:42 53.43440 22.04919 35929 ft 424 kts 216°
2026-05-04 08:42 53.38530 21.99395 35947 ft 425 kts 216°
2026-05-04 08:43 53.33605 21.93868 35949 ft 426 kts 216°
2026-05-04 08:43 53.28670 21.88345 35954 ft 427 kts 216°
2026-05-04 08:44 53.23721 21.82822 35932 ft 428 kts 216°
2026-05-04 08:46 53.04233 21.59969 35957 ft 430 kts 218°
2026-05-04 08:46 52.99413 21.54054 35950 ft 431 kts 218°
2026-05-04 08:47 52.94572 21.48167 35962 ft 431 kts 218°
2026-05-04 08:47 52.89712 21.42288 35966 ft 432 kts 218°
2026-05-04 08:48 52.84880 21.36462 35961 ft 432 kts 218°
2026-05-04 08:48 52.80012 21.30609 35960 ft 432 kts 218°
2026-05-04 08:49 52.75134 21.24760 35967 ft 432 kts 218°
2026-05-04 08:50 52.58102 21.04466 35972 ft 432 kts 217°
2026-05-04 08:51 52.53222 20.98687 35981 ft 432 kts 217°
2026-05-04 08:51 52.48367 20.92955 35989 ft 432 kts 217°
2026-05-04 08:52 52.43481 20.87202 35991 ft 432 kts 217°
2026-05-04 08:52 52.38597 20.81467 35981 ft 432 kts 217°
2026-05-04 08:54 52.19038 20.58660 35985 ft 432 kts 217°
2026-05-04 08:55 52.14144 20.52992 35989 ft 431 kts 217°
2026-05-04 08:55 52.09245 20.47334 35981 ft 431 kts 217°
2026-05-04 09:01 51.57780 19.88820 36008 ft 432 kts 217°
2026-05-04 09:01 51.52843 19.83294 35999 ft 432 kts 217°
2026-05-04 09:02 51.47929 19.77809 36007 ft 432 kts 217°
2026-05-04 09:02 51.42982 19.72300 36012 ft 433 kts 217°
2026-05-04 09:03 51.38027 19.66799 36013 ft 433 kts 217°
2026-05-04 09:03 51.33072 19.61311 36006 ft 433 kts 217°
2026-05-04 09:04 51.28107 19.55827 36012 ft 433 kts 216°
2026-05-04 09:04 51.23142 19.50358 36019 ft 433 kts 217°
2026-05-04 09:05 51.18175 19.44902 36021 ft 433 kts 216°
2026-05-04 09:05 51.13230 19.39484 36021 ft 433 kts 217°
2026-05-04 09:06 51.08252 19.34044 36020 ft 434 kts 216°
2026-05-04 09:08 50.88335 19.12423 36038 ft 433 kts 216°
2026-05-04 09:08 50.83349 19.07046 36032 ft 433 kts 216°
2026-05-04 09:09 50.78360 19.01680 36036 ft 433 kts 216°
2026-05-04 09:09 50.73413 18.96373 36031 ft 433 kts 216°
2026-05-04 09:10 50.68427 18.91038 36032 ft 432 kts 216°
2026-05-04 09:10 50.63450 18.85727 36037 ft 432 kts 216°
2026-05-04 09:11 50.58463 18.80419 36065 ft 432 kts 216°
2026-05-04 09:11 50.53479 18.75128 36058 ft 432 kts 216°
2026-05-04 09:12 50.48499 18.69854 36035 ft 432 kts 216°
2026-05-04 09:14 50.28551 18.48866 36035 ft 433 kts 216°
2026-05-04 09:14 50.23543 18.43632 36042 ft 433 kts 216°
2026-05-04 09:15 50.18558 18.38432 36035 ft 433 kts 216°
2026-05-04 09:15 50.13539 18.33213 36046 ft 433 kts 216°
2026-05-04 09:17 49.90056 18.11986 36030 ft 436 kts 206°
2026-05-04 09:18 49.84575 18.08082 36043 ft 436 kts 208°
2026-05-04 09:18 49.79082 18.04110 36045 ft 436 kts 207°
2026-05-04 09:19 49.73587 18.00141 36058 ft 436 kts 208°
2026-05-04 09:19 49.68288 17.95635 36041 ft 432 kts 219°
2026-05-04 09:20 49.63573 17.89929 36057 ft 431 kts 221°
2026-05-04 09:20 49.58850 17.84199 36044 ft 432 kts 220°
2026-05-04 09:21 49.54096 17.78519 36051 ft 432 kts 220°
2026-05-04 09:21 49.49355 17.72900 36044 ft 433 kts 220°
2026-05-04 09:22 49.44566 17.67241 36051 ft 433 kts 219°
2026-05-04 09:22 49.39773 17.61589 36069 ft 434 kts 220°
2026-05-04 09:23 49.34980 17.55948 36054 ft 435 kts 219°
2026-05-04 09:23 49.30197 17.50268 36056 ft 435 kts 221°
2026-05-04 09:25 49.11515 17.26682 36065 ft 435 kts 221°
2026-05-04 09:26 49.06850 17.20860 36077 ft 435 kts 221°
2026-05-04 09:26 49.02156 17.15016 36070 ft 435 kts 221°
2026-05-04 09:27 48.97464 17.09187 36065 ft 435 kts 222°
2026-05-04 09:27 48.92795 17.03401 36055 ft 435 kts 221°
2026-05-04 09:28 48.88100 16.97597 36049 ft 435 kts 221°
2026-05-04 09:28 48.84166 16.92745 36055 ft 435 kts 221°
2026-05-04 09:29 48.79496 16.86997 36050 ft 435 kts 221°
2026-05-04 09:29 48.74790 16.81219 36062 ft 435 kts 221°
2026-05-04 09:30 48.69819 16.75952 36064 ft 437 kts 213°
2026-05-04 09:30 48.64521 16.71401 36052 ft 438 kts 212°
2026-05-04 09:31 48.59202 16.66885 36050 ft 438 kts 212°
2026-05-04 09:31 48.53930 16.62351 36044 ft 438 kts 212°
2026-05-04 09:32 48.48639 16.57771 36045 ft 437 kts 212°
2026-05-04 09:34 48.27543 16.39569 36048 ft 437 kts 212°
2026-05-04 09:34 48.22253 16.35033 36049 ft 437 kts 212°
2026-05-04 09:35 48.16965 16.30510 36046 ft 438 kts 212°
2026-05-04 09:35 48.11668 16.25990 36043 ft 438 kts 212°
2026-05-04 09:37 47.90418 16.07965 36046 ft 441 kts 212°
2026-05-04 09:38 47.85068 16.03454 36052 ft 442 kts 212°
2026-05-04 09:38 47.79708 15.98946 36048 ft 443 kts 212°
2026-05-04 09:39 47.74343 15.94444 36054 ft 443 kts 212°
2026-05-04 09:39 47.69003 15.89974 36052 ft 443 kts 212°
2026-05-04 09:40 47.63634 15.85490 36062 ft 443 kts 212°
2026-05-04 09:40 47.58258 15.81011 36061 ft 443 kts 212°
2026-05-04 09:42 47.36860 15.63288 36084 ft 441 kts 212°
2026-05-04 09:43 47.31500 15.58875 36080 ft 441 kts 212°
2026-05-04 09:43 47.26136 15.54469 36090 ft 442 kts 212°
2026-05-04 09:44 47.20756 15.50059 36078 ft 442 kts 212°
2026-05-04 09:46 46.99266 15.32550 36089 ft 442 kts 211°
2026-05-04 09:46 46.93912 15.28213 36084 ft 442 kts 211°
2026-05-04 09:47 46.88527 15.23861 36070 ft 442 kts 211°
2026-05-04 09:49 46.67065 15.06615 36093 ft 438 kts 211°
2026-05-04 09:51 46.48350 14.91704 36110 ft 438 kts 211°
2026-05-04 09:51 46.43030 14.87487 36108 ft 439 kts 211°
2026-05-04 09:52 46.37654 14.83236 36104 ft 439 kts 211°
2026-05-04 09:52 46.32274 14.78991 36107 ft 439 kts 212°
2026-05-04 09:53 46.26903 14.74761 36109 ft 439 kts 211°
2026-05-04 09:53 46.21565 14.70568 36100 ft 439 kts 211°
2026-05-04 09:54 46.16190 14.66355 36108 ft 439 kts 211°
2026-05-04 09:54 46.10794 14.62135 36109 ft 440 kts 211°
2026-05-04 09:55 46.05446 14.57962 36110 ft 440 kts 211°
2026-05-04 09:55 46.00053 14.53763 36118 ft 440 kts 211°
2026-05-04 09:56 45.94661 14.49575 36109 ft 440 kts 211°
2026-05-04 09:56 45.89261 14.45389 36115 ft 441 kts 211°
2026-05-04 09:57 45.83862 14.41214 36113 ft 440 kts 211°
2026-05-04 09:57 45.78469 14.37052 36122 ft 440 kts 211°
2026-05-04 09:58 45.73119 14.32932 36116 ft 439 kts 211°
2026-05-04 09:58 45.67733 14.28793 36126 ft 439 kts 211°
2026-05-04 10:00 45.46203 14.12409 36122 ft 439 kts 209°
2026-05-04 10:04 45.07340 13.87601 36125 ft 435 kts 207°
2026-05-04 10:04 45.01809 13.84087 36126 ft 435 kts 207°
2026-05-04 10:05 44.96283 13.80583 36159 ft 435 kts 207°
2026-05-04 10:05 44.90769 13.77094 36149 ft 435 kts 207°
2026-05-04 10:06 44.85243 13.73605 36152 ft 435 kts 207°
2026-05-04 10:06 44.79742 13.70139 36149 ft 435 kts 207°
2026-05-04 10:08 44.60365 13.57987 36130 ft 436 kts 207°
2026-05-04 10:08 44.54808 13.54518 36122 ft 437 kts 206°
2026-05-04 10:09 44.49249 13.51055 36136 ft 437 kts 206°
2026-05-04 10:09 44.43716 13.47615 36125 ft 437 kts 206°
2026-05-04 10:10 44.38238 13.43903 36130 ft 436 kts 211°
2026-05-04 10:10 44.32920 13.39813 36133 ft 436 kts 211°
2026-05-04 10:11 44.27618 13.35708 36126 ft 435 kts 211°
2026-05-04 10:11 44.22300 13.31646 36129 ft 435 kts 211°
2026-05-04 10:12 44.17000 13.27633 36129 ft 435 kts 211°
2026-05-04 10:12 44.11677 13.23618 36135 ft 434 kts 211°
2026-05-04 10:13 44.06369 13.19621 36130 ft 433 kts 211°
2026-05-04 10:13 44.01097 13.15659 36136 ft 433 kts 211°
2026-05-04 10:14 43.95796 13.11683 36130 ft 432 kts 211°
2026-05-04 10:16 43.78303 12.98623 33486 ft 418 kts 211°
2026-05-04 10:16 43.75747 12.96722 33058 ft 415 kts 211°
2026-05-04 10:16 43.73217 12.94842 32663 ft 411 kts 211°
2026-05-04 10:16 43.70710 12.92980 32269 ft 408 kts 211°
2026-05-04 10:17 43.68211 12.91126 31856 ft 404 kts 211°
2026-05-04 10:17 43.65742 12.89296 31465 ft 401 kts 211°
2026-05-04 10:19 43.48993 12.76925 28734 ft 379 kts 210°
2026-05-04 10:19 43.46671 12.75215 28313 ft 377 kts 210°
2026-05-04 10:19 43.44371 12.73524 27952 ft 373 kts 210°
2026-05-04 10:19 43.42091 12.71839 27558 ft 371 kts 211°
2026-05-04 10:20 43.39852 12.70043 27200 ft 374 kts 213°
2026-05-04 10:20 43.37619 12.68158 26819 ft 377 kts 213°
2026-05-04 10:20 43.35395 12.66253 26415 ft 375 kts 214°
2026-05-04 10:20 43.33213 12.64384 26039 ft 372 kts 213°
2026-05-04 10:21 43.31015 12.62510 25642 ft 371 kts 212°
2026-05-04 10:21 43.28829 12.60656 25270 ft 369 kts 212°
2026-05-04 10:21 43.26645 12.58811 24890 ft 367 kts 212°
2026-05-04 10:21 43.24475 12.56983 24523 ft 365 kts 212°
2026-05-04 10:22 43.20141 12.53340 23722 ft 365 kts 212°
2026-05-04 10:22 43.17979 12.51527 23292 ft 363 kts 212°
2026-05-04 10:22 43.15827 12.49723 22890 ft 361 kts 212°
2026-05-04 10:23 43.13688 12.47933 22492 ft 359 kts 212°
2026-05-04 10:23 43.11566 12.46158 22122 ft 356 kts 212°
2026-05-04 10:25 42.97118 12.34111 19566 ft 341 kts 211°
2026-05-04 10:25 42.95097 12.32430 19210 ft 339 kts 211°
2026-05-04 10:25 42.93085 12.30759 18853 ft 338 kts 211°
2026-05-04 10:25 42.91077 12.29094 18494 ft 337 kts 211°
2026-05-04 10:26 42.89079 12.27437 18069 ft 335 kts 211°
2026-05-04 10:26 42.87089 12.25787 17684 ft 334 kts 211°
2026-05-04 10:26 42.85109 12.24147 17312 ft 332 kts 210°
2026-05-04 10:26 42.83170 12.22541 16958 ft 329 kts 210°
2026-05-04 10:27 42.81218 12.20927 16601 ft 327 kts 210°
2026-05-04 10:27 42.79242 12.19418 16304 ft 323 kts 201°
2026-05-04 10:27 42.77102 12.18635 16065 ft 317 kts 188°
2026-05-04 10:27 42.74912 12.18440 15767 ft 314 kts 180°
2026-05-04 10:28 42.72730 12.18460 15407 ft 313 kts 180°
2026-05-04 10:28 42.70554 12.18505 15077 ft 313 kts 179°
2026-05-04 10:28 42.68382 12.18552 14764 ft 311 kts 179°
2026-05-04 10:28 42.66230 12.18594 14459 ft 309 kts 179°
2026-05-04 10:29 42.64085 12.18631 14126 ft 308 kts 179°
2026-05-04 10:29 42.61945 12.18664 13798 ft 306 kts 179°
2026-05-04 10:29 42.59832 12.18693 13609 ft 300 kts 179°
2026-05-04 10:29 42.57781 12.18720 13536 ft 290 kts 179°
2026-05-04 10:30 42.55800 12.18745 13431 ft 280 kts 179°
2026-05-04 10:30 42.53893 12.18767 13061 ft 276 kts 179°
2026-05-04 10:30 42.51942 12.18792 12397 ft 283 kts 179°
2026-05-04 10:30 42.49963 12.18816 11855 ft 285 kts 179°
2026-05-04 10:31 42.47972 12.18840 11359 ft 286 kts 179°
2026-05-04 10:31 42.45990 12.18863 10943 ft 284 kts 179°
2026-05-04 10:32 42.34483 12.18997 8134 ft 272 kts 180°
2026-05-04 10:33 42.32601 12.19019 7743 ft 268 kts 180°
2026-05-04 10:33 42.30768 12.19040 7290 ft 267 kts 180°
2026-05-04 10:33 42.28922 12.19062 6852 ft 265 kts 180°
2026-05-04 10:33 42.27092 12.19083 6474 ft 262 kts 180°
2026-05-04 10:34 42.25277 12.19104 6018 ft 260 kts 180°
2026-05-04 10:34 42.23473 12.19125 5593 ft 257 kts 180°
2026-05-04 10:34 42.21701 12.19145 5231 ft 252 kts 179°
2026-05-04 10:34 42.19957 12.19165 4896 ft 248 kts 179°
2026-05-04 10:35 42.18256 12.19184 4778 ft 240 kts 179°
2026-05-04 10:35 42.16593 12.19203 4525 ft 239 kts 179°
2026-05-04 10:35 42.14932 12.19207 4286 ft 238 kts 183°
2026-05-04 10:35 42.13297 12.18806 4023 ft 239 kts 193°
2026-05-04 10:36 42.11689 12.18272 3821 ft 238 kts 192°
2026-05-04 10:36 42.10097 12.17772 3571 ft 238 kts 191°
2026-05-04 10:36 42.08485 12.17280 3316 ft 238 kts 192°
2026-05-04 10:36 42.06854 12.16923 3076 ft 236 kts 175°
2026-05-04 10:37 42.05311 12.17488 3048 ft 224 kts 160°
2026-05-04 10:37 42.03867 12.18123 2956 ft 212 kts 164°
2026-05-04 10:37 42.02496 12.18677 2866 ft 200 kts 163°
2026-05-04 10:37 42.01205 12.19208 2710 ft 188 kts 162°
2026-05-04 10:39 41.94838 12.21867 2152 ft 149 kts 162°
2026-05-04 10:39 41.93854 12.22279 1955 ft 148 kts 162°
2026-05-04 10:39 41.92877 12.22688 1746 ft 146 kts 162°
2026-05-04 10:40 41.91909 12.23094 1562 ft 146 kts 162°
2026-05-04 10:40 41.90937 12.23500 1367 ft 146 kts 162°
2026-05-04 10:40 41.89966 12.23905 1162 ft 145 kts 162°
2026-05-04 10:40 41.89003 12.24310 985 ft 144 kts 163°
2026-05-04 10:41 41.88047 12.24710 783 ft 143 kts 163°
2026-05-04 10:41 41.87103 12.25103 572 ft 140 kts 164°
2026-05-04 10:41 41.86169 12.25498 389 ft 145 kts 163°
2026-05-04 10:41 41.85208 12.25904 207 ft 146 kts 165°
2026-05-04 10:42 41.84239 12.26305 33 ft 143 kts 164°
2026-05-04 10:42 41.83374 12.26663 12 ft 112 kts 162°
2026-05-04 10:42 41.82771 12.26915 13 ft 75 kts 163°
2026-05-04 10:42 41.82323 12.27102 9 ft 58 kts 163°
2026-05-04 10:43 41.82010 12.27123 10 ft 34 kts 191°
2026-05-04 10:44 41.80834 12.27333 11 ft 21 kts 189°
2026-05-04 10:45 41.80693 12.27286 11 ft 21 kts 213°
2026-05-04 10:45 41.80628 12.27121 13 ft 20 kts 249°
2026-05-04 10:45 41.80579 12.26949 12 ft 20 kts 250°
2026-05-04 10:45 41.80531 12.26774 13 ft 20 kts 250°
2026-05-04 10:46 41.80485 12.26604 14 ft 19 kts 250°
2026-05-04 10:46 41.80440 12.26439 14 ft 19 kts 250°
2026-05-04 10:46 41.80392 12.26267 14 ft 20 kts 250°
2026-05-04 10:46 41.80335 12.26113 13 ft 17 kts 221°
2026-05-04 10:47 41.80232 12.26045 14 ft 16 kts 204°
2026-05-04 10:47 41.80133 12.25984 13 ft 16 kts 205°
2026-05-04 10:47 41.80036 12.25924 13 ft 15 kts 204°
2026-05-04 10:47 41.79943 12.25866 13 ft 14 kts 205°
2026-05-04 10:49 41.79707 12.25840 15 ft 0 kts 115°